STARLINK-34898, 65895

Orbit data source: Space-Track

STARLINK-34898, 65895 is a payload satellite owned by SpaceX/Seattle (US) in LEO that was launched on Tue, 07 Oct 2025 UTC via an FALCON 9 launch vehicle from the Air Force Eastern Test Range (AFETR). Payload-class satellites include a variety of spacecraft equipped with specific instruments for various scientific and technological missions. These include communications satellites like Starlink; space stations such as the ISS; scientific satellites like the Hubble; Earth observation satellites from companies like Planet Labs, Umbra, and HawkEye 360; GPS; miniature CubeSats for education and research; and military/defense satellites.

Loading next visibility...
Identifier
65895, 2025-224P
Orbit
LEO
Country
Flag of USUS
Related business
Manufacturer
SpaceX/Seattle
Mission
Operational Commercial Communications
Bus & Motor
STARLINK V2MO, Unknown motor
Mass
575 kg wet, ~530 kg dry
Launch date (UTC)
2025-10-07 (5 months ago)
Launch vehicle
FALCON 9
Launch site
Air Force Eastern Test Range (AFETR)
Object type
Payload
Rocket body
Debris
Shape & HBR
Box + 2 Pan, 17.7 m
Radar Cross Section
36.964 m²

Expand to show TLE details & history
Last TLE update: 10 hours ago

TLE from 10 hours ago
0 STARLINK-34898
1 65895U 25224P   26062.15219949  .00022087  00000-0  75552-3 0  9990
2 65895  53.1588  41.6870 0001078  87.0674 273.0450 15.30204188 23872
Epoch: 2026-03-03T03:39Z
TLE epoch observation values (Epoch: 2026-03-03T03:39:10.035Z)
Latitude
-0.00005°
Longitude
-174.04022°
Altitude
476.063 km
Speed
7.629 km/s
True Right ascension
02h 46m 44s
True Declination
0° 00' 00"
Sunlit
Object was in daylight at epoch
Visualization orbit readout
Latitude
Unknown
Longitude
Unknown
Altitude
Unknown
Speed
Unknown
Apparent Right ascension
Unknown
Apparent Declination
Unknown
Sunlit
N/A
Visualization observer readout
Local Sidereal Time
17:47:11
Azimuth
Unknown
Elevation
Unknown
Doppler factor
Unknown
Orbital elements
Apogee altitude
476.198 km
Perigee altitude
474.72 km
Semi-major axis
6,853.596 km
Eccentricity
0.00011
Inclination
53.1588°
RAAN
41.687°
Arg. of periapsis
87.0674°
True anomaly
273.03266°
Mean anomaly
273.045°
Eccentric anomaly
273.03883°
Mean motion
3.8253 °/min
Orbital period
94.11 mins
BSTAR
0.00075552
Loading maneuver chart data...
Computing Atmospheric mass density...
Loading historical data...
Loading historical data...
Loading historical data...
Loading historical data...
Loading historical data...
Loading historical data...
Loading historical data...

Documentation

Showing up to 5 results
|